Flag for France Weather past 2 weeks in Saint-Denis, France

Now
75 °F

Clear.


Feels Like: 77 °F
Forecast: 64 / 82 °F
Wind: 2 mph from North

Location: Paris Le Bourget Airport

Current Time: Sep 18, 2014 at 12:10:04 PM

Latest Report: Sep 18, 2014 at 11:30 AM


Visibility: N/A

Pressure: 29.77 "Hg

Humidity: 65%

Dew point: 63 °F

Location of Saint-DenisLocation

Historic Weather in Saint-Denis — Graph

°F

Saint-Denis temperature yesterday

Maximum temperature yesterday: 77 °F (at 3:30 PM)
Minimum temperature yesterday: 59 °F (at 5:00 AM)
Average temperature yesterday: 68 °F

Past Weeks' High & Low Weather Summary

 TemperatureHumidityPressure
High79 °F (Sep 15, 5:00 PM)100% (Sep 7, 4:00 AM)30.21 "Hg (Sep 7, 4:00 AM)
Low50 °F (Sep 11, 6:00 AM)38% (Sep 9, 4:00 PM)29.74 "Hg (Sep 17, 3:30 PM)
Average65 °F74%30.01 "Hg
* Reported Sep 3 11:00 AM — Sep 18 11:00 AM, Saint-Denis, Weather by CustomWeather, © 2014

Note: Actual official high and low records may vary slightly from our data, if they occured in-between our weather recording intervals... More about our weather records

Advertising

Saint-Denis weather history for previous 24 hours

 ConditionsComfort  
Time TempWeatherWind HumidityBarometerVisibility
11:00 AM
Sep 18
73 °FClear.2 mph69%29.77 "HgN/A
10:30 AM70 °FClear.2 mph83%29.77 "HgN/A
10:00 AM68 °FClear.No wind83%29.77 "HgN/A
9:30 AM66 °FClear.1 mph88%29.77 "HgN/A
9:00 AM64 °FClear.2 mph94%29.77 "HgN/A
8:30 AM61 °FClear.2 mph100%29.77 "Hg6 mi
8:00 AM61 °FClear.3 mph94%29.74 "HgN/A
7:30 AM61 °FClear.5 mph94%29.74 "Hg5 mi
7:00 AM61 °FClear.5 mph94%29.74 "Hg5 mi
6:30 AM61 °FClear.5 mph100%29.74 "Hg6 mi
6:00 AM63 °FClear.2 mph94%29.77 "HgN/A
5:30 AM61 °FClear.3 mph100%29.77 "HgN/A
4:30 AM61 °FClear.5 mph100%29.74 "Hg5 mi
4:00 AM63 °FClear.3 mph94%29.74 "Hg4 mi
3:30 AM64 °FClear.2 mph94%29.74 "Hg5 mi
3:00 AM64 °FClear.2 mph94%29.77 "HgN/A
2:30 AM64 °FClear.2 mph94%29.77 "HgN/A
2:00 AM66 °FClear.2 mph88%29.77 "HgN/A
1:30 AM66 °FClear.3 mph88%29.77 "HgN/A
1:00 AM66 °FClear.6 mph88%29.77 "HgN/A
12:30 AM68 °FMild.3 mph88%29.77 "HgN/A
12:00 AM68 °FLight rain. Overcast.7 mph88%29.77 "HgN/A
11:30 PM
Sep 17
70 °FMild.5 mph78%29.77 "HgN/A
11:00 PM72 °FMild.12 mph73%29.77 "HgN/A
10:30 PM70 °FMild.2 mph78%29.77 "HgN/A
10:00 PM70 °FClear.3 mph78%29.77 "HgN/A
9:30 PM70 °FClear.5 mph73%29.77 "HgN/A
9:00 PM72 °FClear.3 mph69%29.74 "HgN/A
8:30 PM72 °FClear.5 mph69%29.74 "HgN/A
8:00 PM73 °FClear.3 mph65%29.74 "HgN/A
7:30 PM75 °FClear.3 mph61%29.74 "HgN/A
7:00 PM77 °FClear.7 mph57%29.74 "HgN/A
6:30 PM77 °FClear.7 mph57%29.74 "HgN/A
6:00 PM77 °FBroken clouds.7 mph61%29.74 "HgN/A
5:30 PM77 °FClear.6 mph57%29.74 "HgN/A
5:00 PM77 °FClear.8 mph57%29.74 "HgN/A
4:30 PM77 °FClear.6 mph61%29.74 "HgN/A
4:00 PM77 °FClear.5 mph61%29.74 "HgN/A
3:30 PM77 °FClear.5 mph57%29.74 "HgN/A
3:00 PM75 °FClear.6 mph65%29.77 "HgN/A
2:30 PM75 °FClear.7 mph61%29.77 "HgN/A
2:00 PM75 °FClear.8 mph61%29.77 "HgN/A
1:30 PM75 °FClear.8 mph61%29.77 "HgN/A
1:00 PM73 °FClear.6 mph65%29.77 "HgN/A
12:30 PM73 °FClear.7 mph65%29.77 "HgN/A
12:00 PM72 °FClear.8 mph69%29.77 "HgN/A
Weather by CustomWeather, © 2014

See weather overviewHow to use our weather pages